Location: Lourdes
(43.1000°N, 0.0500°W)
Time: 10:10:42
(UTC+00:00)

FALCON 9 R/B - Pass Details

Date: 30 November 2020
Orbit: 299 x 10107 km, 34.5° (Epoch: 25 January)

Event Time Altitude Azimuth Distance (km) Brightness Sun altitude
Rises 18:02:12 0° 242° (WSW) 2,030 5.8 -17.0°
Reaches altitude 10° 18:04:29 10° 212° (SSW) 1,168 3.6 -17.4°
Maximum altitude 18:05:52 15° 173° (S) 1,025 2.8 -17.7°
Enters shadow 18:06:15 14° 161° (SSE) 1,072 2.7 -17.7°
